This is the latest recevied weather packets stored in our database for station/object K7FLA. If no packets are shown the sender has not sent any weather packets the latest 10 day(s).
| Time | Temp. | Humidity | Pressure | Rain* | Wind** | Luminosity | Snow |
|---|---|---|---|---|---|---|---|
| 1777312174 | 16.67° C | 54% | 1096.1 hPa | 0 mm | - | 941 W/m² | - |
| 1777311872 | 15.56° C | 54% | 1095.9 hPa | 0 mm | - | 520 W/m² | - |
| 1777311568 | 14.44° C | 56% | 1096 hPa | 0 mm | - | 473 W/m² | - |
| 1777311266 | 13.89° C | 59% | 1096.2 hPa | 0 mm | - | 390 W/m² | - |
| 1777310964 | 13.33° C | 60% | 1096 hPa | 0 mm | - | 274 W/m² | - |
| 1777310661 | 13.33° C | 61% | 1096 hPa | 0 mm | - | 210 W/m² | - |
| 1777310358 | 13.33° C | 60% | 1096 hPa | 0 mm | - | 184 W/m² | - |
| 1777310055 | 13.33° C | 59% | 1096.1 hPa | 0 mm | - | 163 W/m² | - |
| 1777309753 | 13.33° C | 58% | 1096.1 hPa | 0 mm | - | 170 W/m² | - |
| 1777309451 | 13.89° C | 60% | 1096.1 hPa | 0 mm | - | 168 W/m² | - |
| 1777309148 | 13.89° C | 60% | 1096 hPa | 0 mm | - | 169 W/m² | - |
| 1777308846 | 13.89° C | 60% | 1096 hPa | 0 mm | - | 179 W/m² | - |
| 1777308540 | 13.89° C | 60% | 1095.9 hPa | 0 mm | - | 231 W/m² | - |
| 1777308236 | 13.89° C | 59% | 1095.7 hPa | 0 mm | - | 272 W/m² | - |
| 1777307932 | 13.89° C | 59% | 1095.7 hPa | 0 mm | - | 215 W/m² | - |
| 1777307630 | 14.44° C | 59% | 1095.7 hPa | 0 mm | - | 191 W/m² | - |
| 1777307327 | 15° C | 59% | 1095.6 hPa | 0 mm | - | 198 W/m² | - |
| 1777307024 | 14.44° C | 63% | 1095.6 hPa | 0 mm | - | 227 W/m² | - |
| 1777306722 | 13.89° C | 60% | 1095.5 hPa | 0 mm | - | 279 W/m² | - |
| 1777306418 | 13.33° C | 64% | 1095.6 hPa | 0 mm | - | 222 W/m² | - |
| 1777306113 | 12.78° C | 67% | 1095.5 hPa | 0 mm | - | 327 W/m² | - |
| 1777305809 | 12.22° C | 69% | 1095.6 hPa | 0 mm | - | 358 W/m² | - |
| 1777305505 | 11.67° C | 68% | 1095.4 hPa | 0 mm | - | 131 W/m² | - |
| 1777305201 | 11.67° C | 70% | 1095.5 hPa | 0 mm | - | 177 W/m² | - |
| 1777304895 | 11.67° C | 70% | 1095.5 hPa | 0 mm | - | 219 W/m² | - |
* Rain latest hour (hover to see other rain measurements)
** Current wind speed in m/s (hover to see current wind gust speed)